,

(GMT )
Farnborough

Weather History for EGLF - September, 2013

Change the Weather History Date:

Monday, September 9, 2013

  Actual Average Record
Temperature  
Mean Temperature 52 °F -  
Max Temperature 59 °F - - ()
Min Temperature 44 °F - - ()
Degree Days  
Heating Degree Days 14    
Growing Degree Days 2 (Base 50)    
Moisture  
Dew Point 52 °F    
Average Humidity 92    
Maximum Humidity 97    
Minimum Humidity 79    
Precipitation  
Precipitation 0.12 in - - ()
Sea Level Pressure  
Sea Level Pressure 30.00 in    
Wind  
Wind Speed 5 mph ()    
Max Wind Speed 10 mph    
Max Gust Speed -    
Visibility 6.5 miles    
Events Rain    
T = Trace of Precipitation, MM = Missing Value Source: Averaged Metar Reports

Daily Weather History Graph

Daily Weather History Graph

Search for Another Location

Airport or City:

Trip Planner

Search our weather history database for the weather conditions in past years. The results will help you decide how hot, cold, wet, or windy it might be!

Date:

Astronomy

Sep. 09, 2013 Rise Set
Actual Time 6:28 AM BST 7:30 PM BST
Civil Twilight 5:54 AM BST 8:04 PM BST
Nautical Twilight 5:13 AM BST 8:45 PM BST
Astronomical Twilight 4:29 AM BST 9:29 PM BST
Moon 11:08 AM BST (9/9) 9:01 PM BST (9/9)
Length of Visible Light 14h 09m
Length of Day
13h 02m
Waxing Crescent, 17% of the Moon is Illuminated
Sep 9
Waxing Crescent
Sep 12
First Quarter
Sep 19
Full
Sep 27
Last Quarter
Oct 5
New

Hourly Weather History & Observations

Time (BST) Temp. Dew Point Humidity Pressure Visibility Wind Dir Wind Speed Gust Speed Precip Events Conditions
3:50 AM 48 °F 47 °F 97% 30.04 in 17 mi SSE 3.5 mph - -   Mostly Cloudy
6:50 AM 49 °F 47 °F 91% 30.02 in 17 mi ESE 1.2 mph - -   Scattered Clouds
6:50 AM 48.2 °F 46.4 °F 93% 30.01 in 6.2 mi SSE 5.8 mph - N/A   Scattered Clouds
7:20 AM 50.0 °F 48.2 °F 94% 30.01 in 6.2 mi East 4.6 mph - N/A   Scattered Clouds
7:50 AM 50.0 °F 48.2 °F 94% 30.01 in 6.2 mi Variable 3.5 mph - N/A   Scattered Clouds
8:20 AM 51.8 °F 50.0 °F 94% 30.01 in - ESE 3.5 mph - N/A   Clear
8:50 AM 51.8 °F 50.0 °F 94% 30.01 in 6.2 mi ESE 4.6 mph - N/A   Partly Cloudy
9:20 AM 53.6 °F 51.8 °F 94% 30.01 in 6.2 mi SE 5.8 mph - N/A   Partly Cloudy
9:50 AM 54 °F 52 °F 91% 29.99 in 11 mi SSE 6.9 mph - -   Mostly Cloudy
9:50 AM 53.6 °F 51.8 °F 94% 29.98 in 6.2 mi SSE 8.1 mph - N/A   Partly Cloudy
10:20 AM 55.4 °F 53.6 °F 94% 29.98 in 6.2 mi SSE 6.9 mph - N/A   Mostly Cloudy
10:50 AM 55.4 °F 53.6 °F 94% 29.98 in 5.0 mi ESE 5.8 mph - N/A   Light Drizzle
11:20 AM 57.2 °F 55.4 °F 94% 29.98 in 6.2 mi East 5.8 mph - N/A   Mostly Cloudy
11:50 AM 59.0 °F 55.4 °F 88% 29.98 in 6.2 mi ESE 5.8 mph - N/A   Mostly Cloudy
12:20 PM 59.0 °F 53.6 °F 82% 29.98 in 6.2 mi SE 4.6 mph - N/A   Mostly Cloudy
12:50 PM 59 °F 54 °F 79% 29.97 in 5 mi SE 4.6 mph - -   Scattered Clouds
12:50 PM 59.0 °F 53.6 °F 82% 29.95 in 3.7 mi ESE 5.8 mph - N/A   Light Drizzle
1:20 PM 59.0 °F 53.6 °F 82% 29.98 in 1.9 mi East 4.6 mph - N/A Rain Rain
1:50 PM 57.2 °F 55.4 °F 94% 29.98 in 1.9 mi NNE 8.1 mph - N/A Rain Light Rain
2:20 PM 57.2 °F 55.4 °F 94% 29.98 in 3.7 mi NNE 10.4 mph - N/A   Light Drizzle
2:50 PM 57.2 °F 55.4 °F 94% - 3.7 mi NNE 10.4 mph - N/A   Light Drizzle
3:20 PM 57.2 °F 53.6 °F 88% 29.98 in 5.0 mi NNE 8.1 mph - N/A   Mostly Cloudy
3:50 PM 56 °F 54 °F 90% 29.98 in 5 mi NE 5.8 mph - -   Mostly Cloudy
3:50 PM 57.2 °F 53.6 °F 88% 29.98 in 5.0 mi NNE 6.9 mph - N/A Rain Rain Showers
4:20 PM 55.4 °F 53.6 °F 94% 29.98 in 6.2 mi North 5.8 mph - N/A   Light Drizzle
4:50 PM 57.2 °F 55.4 °F 94% 29.98 in 6.2 mi North 6.9 mph - N/A   Mostly Cloudy
5:20 PM 55.4 °F 53.6 °F 94% 29.98 in 6.2 mi NE 6.9 mph - N/A   Mostly Cloudy
5:50 PM 55.4 °F 53.6 °F 94% 30.01 in 6.2 mi NE 6.9 mph - N/A Rain Light Rain Showers
6:20 PM 55.4 °F 53.6 °F 94% 30.01 in 6.2 mi NE 8.1 mph - N/A   Light Drizzle
6:50 PM 55 °F 53 °F 89% 30.02 in 12 mi North 5.8 mph - -   Mostly Cloudy
6:50 PM 55.4 °F 51.8 °F 88% 30.01 in 6.2 mi North 5.8 mph - N/A   Mostly Cloudy
7:20 PM 53.6 °F 51.8 °F 94% 30.01 in 6.2 mi NNW 4.6 mph - N/A   Partly Cloudy
7:50 PM 53.6 °F 51.8 °F 94% 30.04 in 6.2 mi North 2.3 mph - N/A   Partly Cloudy
8:20 PM 53.6 °F 51.8 °F 94% 30.04 in 6.2 mi Variable 2.3 mph - N/A   Partly Cloudy
8:50 PM 53.6 °F 51.8 °F 94% 30.04 in 6.2 mi Variable 2.3 mph - N/A Rain Light Rain Showers
9:20 PM 53.6 °F 51.8 °F 94% 30.04 in 6.2 mi West 3.5 mph - N/A   Partly Cloudy
9:50 PM 52 °F 51 °F 95% 30.06 in 7 mi West 3.5 mph - -   Partly Cloudy